Weather in Aktayuzh

Russia / Mari El Republic     56°40′09″N   47°00′25″E
temp.,
°C
wind,
m/s
gust,
m/s
humid.,
%
clouds,
%
prec.,
mm/h
press.,
hPa
HPBL,
m
17 may, mon
mon1700:00+15sw229583 0.8 101427
03:00+15w11925 1.0 101512
06:00+16wsw1285100 0.0 101784
09:00+22w1263100 0.0 1017387
12:00+26w134180 0.0 10171352
15:00+27sw123987 0.0 10171566
18:00+24ne126012 0.0 101733
21:00+18ese22759 0.0 101820
18 may, tue
tue1800:00+16e228192 0.1 101826
03:00+15e268999 0.3 101895
06:00+17e38805 0.1 1018219
09:00+23ese365584 0.1 1019631
12:00+27ese454470 0.0 10181322
15:00+29e463857 0.0 10172722
18:00+25e485974 0.0 1017342
21:00+19e4127747 0.1 1018265
19 may, wed
wed1900:00+16ese3117365 0.0 1018229
03:00+15ese3117767 0.0 1018235
06:00+18ese3116911 0.0 1019330
09:00+24ese47485 0.0 1018728
12:00+27ese56395 0.0 10181370
15:00+27ese45370 0.0 10171578
18:00+24ese38505 0.0 1017398
21:00+17e311720 0.0 1017234
20 may, thu
thu2000:00+16ese313730 0.0 1017296
03:00+15se413780 0.0 1017296
06:00+18se413690 0.0 1018478
09:00+23se58410 0.0 1017919
12:00+25sse68350 0.0 10171337
15:00+26sse68350 0.0 10171560
18:00+23sse510480 0.0 10171042
21:00+18sse413590 0.0 1017424
21 may, fri
fri2100:00+15sse313671 0.0 1017318
03:00+13se397469 0.0 1017186
06:00+16sse396725 0.0 1017299
09:00+21ssw4763100 0.1 1017871
12:00+23ssw610459 0.0 10171931
15:00+23sw685297 0.0 10171879
18:00+20ssw376199 0.0 1018850
21:00+15sw23825 0.0 101956